Temp
18 19 19 20 20 21 22 22 22 22 22 22 23 23 23 24 24 24 25 26 25 25 25 25 26 26 27 28 27 23 24 22 28 26 31 32 32 31 30 30 30 29 28 26 25
19 19 19 20 21 22 22 23 23 23 23 23 23 23 24 24 24 24 26 26 25 25 25 26 28 28 28 28 25 19 22 29 32 28 30 33 32 31 31 31 30 29 27 26 25
19 19 20 20 21 22 22 23 23 23 23 23 23 24 24 24 24 27 27 26 25 25 25 27 27 28 27 25 19 20 23 33 33 33 33 33 33 30 29 25 30 29 27 26 25
19 19 20 20 21 22 22 23 23 23 23 24 24 24 24 24 29 27 27 26 26 25 25 28 29 20 23 29 25 26 30 33 33 33 33 33 33 31 30 31 31 28 27 26 26
19 20 20 20 21 22 23 23 23 24 24 24 24 24 24 25 29 27 27 26 26 26 26 28 26 19 21 29 29 28 33 33 33 33 33 32 32 33 31 31 30 28 27 27 26
19 20 21 21 21 22 23 23 24 24 24 24 24 24 25 28 28 27 27 26 26 27 28 30 30 29 27 28 28 30 34 33 33 33 33 33 33 32 31 31 29 28 28 27 27
19 20 21 21 22 23 23 24 24 24 24 24 25 25 24 28 28 27 27 27 27 28 29 30 30 31 32 32 33 29 27 31 33 33 33 30 29 27 27 31 30 29 28 28 28
20 20 21 21 22 23 23 24 24 24 24 25 25 25 26 28 28 28 28 28 28 28 29 30 31 31 32 32 25 23 23 22 28 30 28 33 22 26 27 30 30 30 29 29 28
20 21 21 22 22 23 24 24 24 25 25 25 25 26 29 29 28 29 29 29 30 30 30 30 31 31 30 24 21 21 22 21 26 26 27 30 24 25 22 26 31 30 29 29 29
20 21 21 22 23 23 24 24 24 25 25 25 26 26 29 30 30 30 29 30 30 31 31 31 25 26 25 20 25 22 24 25 25 25 27 29 32 25 25 22 24 30 30 29 29
20 21 22 22 23 23 24 24 24 25 24 29 31 30 31 31 30 30 30 30 30 31 28 23 25 24 29 30 32 29 29 29 31 29 29 31 33 33 26 24 23 31 30 30 30
21 21 22 23 23 24 24 25 30 29 29 28 31 31 31 31 31 31 30 31 32 27 29 27 25 29 29 31 33 31 30 30 33 34 31 33 29 30 29 31 31 32 31 31 30
21 22 22 23 23 24 25 26 28 29 31 31 31 31 31 31 32 32 31 32 32 29 25 23 27 32 34 33 33 33 33 33 34 35 33 33 25 26 25 28 34 34 31 31 31
22 22 23 23 23 24 25 27 27 28 30 32 32 32 31 31 32 32 32 31 33 26 25 27 29 34 34 33 34 32 34 34 34 32 27 31 23 23 23 27 34 34 33 33 31
22 23 23 24 25 26 28 28 28 28 29 33 33 33 32 32 32 33 32 33 32 32 33 32 32 33 33 34 34 34 35 34 35 35 34 34 32 29 28 32 34 34 33 33 32
22 23 24 23 25 26 27 28 28 30 30 33 34 33 33 33 33 33 32 32 32 32 31 33 33 35 35 35 35 35 35 35 35 35 31 34 33 31 33 33 33 33 32 31 31
23 23 24 25 26 27 28 28 30 30 35 33 33 34 34 34 34 34 33 33 29 20 22 25 31 36 35 34 34 34 35 32 33 32 31 35 35 34 34 33 33 32 31 30 30
23 24 24 25 25 25 27 30 29 35 34 36 35 35 34 35 35 34 34 33 30 29 24 25 30 35 36 35 33 34 35 33 31 32 33 36 33 34 35 34 34 33 33 31 30
23 24 25 26 26 25 28 30 33 35 36 36 36 34 34 34 31 23 33 33 24 28 30 26 28 36 36 36 35 34 33 35 34 35 34 36 35 35 36 35 33 33 33 32 31
24 24 26 27 27 27 30 28 34 36 36 36 35 35 34 33 35 33 35 36 35 33 36 35 33 36 35 35 36 34 35 33 34 32 31 34 34 33 33 33 33 33 33 31 30
24 27 29 28 28 29 30 34 35 35 35 36 35 35 35 34 36 35 35 36 36 36 35 35 34 35 36 35 35 35 34 35 35 34 32 32 34 35 33 33 33 33 32 30 29
25 30 29 28 29 31 32 35 34 35 34 36 36 36 35 36 35 35 35 36 35 35 34 35 34 33 34 36 37 36 34 34 33 32 34 33 33 37 34 34 34 33 30 28 28
26 30 29 29 30 32 34 35 34 35 35 35 35 36 36 35 33 35 35 35 34 34 33 34 33 32 33 36 37 35 35 35 35 34 32 31 32 37 36 35 33 31 30 28 25
25 31 30 29 30 32 33 34 34 34 35 35 35 35 34 34 35 33 34 36 35 34 31 32 33 32 31 32 34 33 34 35 34 32 33 33 33 34 34 34 32 31 30 27 25
26 32 32 31 32 33 34 35 34 34 34 34 34 34 34 33 34 34 35 35 35 32 32 33 31 32 33 33 34 33 33 34 33 33 32 33 33 33 33 31 30 29 28 28 27
26 28 29 32 33 33 31 33 34 35 35 34 33 34 35 34 34 33 34 34 34 32 33 34 31 32 31 33 33 33 34 34 34 34 34 33 33 34 31 30 28 28 28 28 27
23 25 27 30 33 33 33 34 33 34 34 34 34 34 34 33 33 34 34 34 34 33 33 33 32 31 30 31 31 30 33 34 34 34 33 31 31 32 30 29 28 27 27 27 25
Height
1507 1505 1504 1504 1504 1505 1505 1505 1505 1506 1507 1508 1508 1509 1509 1508 1507 1505 1503 1502 1499 1497 1496 1497 1499 1498 1496 1493 1500 1503 1504 1509 1490 1496 1484 1482 1483 1488 1492 1497 1499 1502 1505 1516 1523
1507 1505 1504 1504 1504 1504 1505 1505 1505 1507 1508 1508 1509 1509 1509 1508 1506 1503 1502 1499 1497 1496 1496 1498 1498 1499 1493 1490 1498 1506 1505 1483 1476 1485 1484 1479 1483 1489 1494 1495 1500 1504 1509 1516 1523
1506 1505 1504 1504 1504 1504 1504 1505 1506 1507 1508 1508 1509 1509 1509 1507 1505 1500 1499 1498 1497 1497 1497 1499 1500 1498 1490 1497 1509 1506 1501 1474 1476 1477 1478 1479 1481 1488 1493 1503 1497 1504 1511 1517 1522
1506 1505 1504 1504 1504 1505 1505 1505 1506 1507 1508 1509 1510 1509 1508 1508 1501 1498 1498 1497 1497 1497 1500 1494 1497 1483 1503 1488 1496 1493 1485 1481 1483 1480 1480 1483 1483 1489 1491 1493 1496 1504 1511 1516 1521
1506 1504 1504 1504 1504 1504 1505 1506 1506 1507 1509 1509 1510 1509 1509 1507 1501 1498 1497 1497 1497 1497 1499 1496 1499 1494 1499 1495 1488 1491 1478 1481 1483 1481 1481 1485 1485 1485 1492 1495 1500 1506 1512 1516 1520
1505 1504 1503 1503 1503 1504 1505 1505 1507 1508 1509 1509 1510 1509 1509 1506 1501 1498 1498 1497 1497 1498 1497 1500 1501 1495 1490 1490 1489 1482 1477 1483 1485 1482 1483 1483 1487 1491 1493 1497 1502 1508 1512 1516 1517
1504 1502 1502 1502 1503 1504 1505 1505 1507 1508 1509 1510 1510 1509 1508 1504 1502 1499 1500 1499 1499 1498 1497 1495 1498 1497 1490 1483 1482 1486 1497 1485 1481 1482 1482 1485 1495 1502 1500 1498 1504 1507 1511 1514 1517
1502 1502 1502 1502 1502 1503 1504 1506 1507 1508 1510 1511 1511 1510 1506 1502 1502 1501 1501 1501 1500 1498 1497 1495 1494 1491 1486 1484 1492 1514 1517 1521 1490 1492 1493 1483 1521 1511 1501 1501 1501 1505 1509 1512 1515
1501 1500 1501 1501 1502 1503 1504 1506 1507 1509 1510 1510 1511 1511 1503 1500 1501 1501 1501 1500 1499 1498 1495 1494 1493 1489 1492 1508 1518 1519 1538 1531 1514 1495 1500 1485 1504 1495 1507 1505 1494 1499 1504 1509 1513
1500 1499 1500 1501 1502 1503 1505 1507 1509 1510 1511 1510 1510 1513 1502 1498 1498 1499 1500 1500 1500 1495 1493 1494 1506 1499 1494 1518 1524 1523 1525 1517 1515 1498 1488 1487 1481 1491 1491 1497 1489 1490 1498 1502 1508
1498 1499 1499 1500 1502 1503 1505 1508 1513 1514 1510 1501 1497 1496 1495 1496 1498 1499 1499 1500 1499 1495 1499 1502 1510 1513 1492 1485 1477 1497 1500 1501 1485 1485 1487 1480 1472 1474 1482 1485 1491 1480 1491 1496 1500
1497 1498 1499 1500 1502 1503 1504 1505 1502 1504 1503 1502 1497 1496 1494 1496 1497 1497 1499 1499 1495 1502 1503 1506 1509 1491 1489 1483 1475 1484 1494 1492 1474 1469 1478 1475 1492 1485 1481 1476 1469 1477 1486 1490 1492
1496 1497 1499 1500 1502 1503 1502 1502 1504 1503 1497 1493 1495 1494 1494 1496 1490 1492 1497 1494 1493 1499 1514 1515 1498 1485 1478 1476 1479 1483 1484 1479 1476 1465 1470 1474 1510 1494 1487 1479 1472 1475 1480 1485 1489
1495 1497 1498 1501 1507 1505 1504 1502 1504 1505 1499 1488 1490 1490 1492 1492 1492 1491 1493 1494 1489 1503 1508 1506 1490 1480 1478 1483 1478 1490 1473 1471 1470 1478 1509 1477 1538 1516 1500 1496 1477 1478 1479 1480 1482
1495 1497 1499 1501 1502 1505 1506 1505 1505 1505 1517 1483 1484 1486 1488 1491 1488 1488 1491 1490 1489 1490 1490 1492 1488 1482 1483 1480 1477 1478 1469 1470 1464 1465 1471 1470 1492 1496 1487 1483 1476 1477 1479 1480 1480
1495 1497 1500 1503 1504 1503 1505 1505 1505 1507 1509 1479 1479 1484 1485 1485 1485 1486 1490 1492 1491 1489 1496 1488 1483 1479 1475 1475 1473 1470 1469 1463 1457 1462 1497 1471 1478 1491 1482 1481 1480 1482 1485 1486 1485
1495 1498 1500 1501 1503 1505 1505 1505 1506 1504 1466 1477 1479 1478 1477 1475 1478 1483 1486 1485 1499 1545 1529 1509 1486 1471 1477 1477 1474 1470 1467 1492 1489 1492 1507 1462 1469 1475 1471 1476 1481 1483 1486 1488 1487
1496 1499 1501 1501 1500 1504 1504 1502 1509 1465 1467 1461 1467 1472 1475 1470 1473 1477 1479 1483 1496 1498 1522 1524 1506 1471 1469 1475 1482 1476 1471 1486 1508 1499 1487 1453 1482 1473 1459 1469 1474 1478 1480 1482 1484
1498 1500 1501 1501 1501 1502 1504 1499 1481 1464 1459 1459 1460 1471 1474 1473 1483 1505 1476 1480 1503 1502 1505 1516 1510 1465 1466 1470 1472 1475 1483 1465 1481 1463 1477 1464 1461 1460 1459 1465 1473 1476 1478 1480 1481
1499 1502 1502 1502 1503 1504 1500 1493 1469 1465 1463 1461 1469 1461 1476 1478 1470 1480 1470 1463 1468 1474 1470 1473 1489 1462 1466 1469 1466 1473 1469 1487 1476 1504 1510 1481 1479 1480 1472 1471 1472 1474 1476 1480 1484
1500 1499 1496 1500 1503 1501 1494 1474 1467 1470 1470 1466 1465 1466 1466 1469 1462 1469 1469 1465 1467 1470 1473 1474 1478 1476 1462 1467 1468 1471 1475 1472 1468 1477 1502 1504 1483 1458 1466 1468 1470 1471 1474 1479 1483
1498 1493 1495 1499 1500 1492 1485 1467 1473 1469 1474 1469 1467 1463 1466 1463 1468 1470 1470 1464 1472 1475 1481 1474 1478 1487 1475 1457 1455 1462 1473 1475 1490 1495 1479 1483 1484 1451 1459 1463 1466 1469 1475 1480 1483
1498 1489 1494 1496 1494 1484 1475 1472 1474 1469 1471 1470 1471 1469 1468 1473 1482 1474 1468 1469 1474 1478 1482 1480 1483 1492 1482 1460 1454 1466 1468 1468 1468 1468 1486 1497 1485 1449 1454 1457 1462 1468 1474 1477 1482
1497 1484 1490 1492 1488 1483 1474 1472 1474 1473 1471 1470 1470 1471 1474 1477 1473 1479 1474 1468 1472 1478 1484 1485 1486 1494 1504 1486 1471 1476 1467 1464 1468 1483 1479 1474 1467 1457 1456 1458 1462 1467 1472 1477 1481
1494 1479 1478 1485 1484 1481 1471 1465 1470 1472 1474 1474 1475 1474 1475 1479 1475 1474 1469 1470 1470 1474 1480 1482 1493 1485 1479 1474 1470 1471 1470 1466 1470 1467 1478 1469 1468 1461 1459 1463 1467 1471 1474 1476 1478
1497 1490 1484 1477 1475 1478 1474 1473 1468 1466 1466 1470 1476 1473 1470 1474 1474 1477 1469 1469 1473 1477 1474 1474 1485 1480 1483 1472 1468 1470 1462 1459 1459 1457 1456 1457 1461 1455 1462 1468 1472 1475 1475 1475 1475
1498 1497 1493 1479 1475 1473 1472 1471 1472 1469 1468 1468 1470 1472 1472 1473 1471 1470 1470 1470 1472 1473 1473 1474 1476 1483 1491 1477 1475 1483 1464 1455 1450 1449 1455 1469 1462 1460 1466 1470 1472 1474 1474 1473 1475
Wind_Speed
6 4 3 2 1 2 4 5 6 7 7 7 7 6 5 5 5 6 6 5 7 5 4 2 5 5 4 6 11 9 4 5 5 4 12 13 12 13 15 13 9 2 19 21 22
6 4 3 2 1 2 4 6 7 7 7 7 6 5 5 7 9 13 11 8 7 6 4 6 7 5 10 9 11 6 4 2 13 8 6 10 14 14 11 13 12 20 22 23 22
6 5 3 2 1 2 4 6 7 8 8 7 6 5 5 7 11 7 8 7 8 5 4 9 7 9 17 18 9 5 5 10 10 12 8 12 9 29 0 3 17 20 22 21 22
7 5 3 2 2 3 5 6 7 7 7 7 6 5 6 7 3 2 4 6 6 6 9 12 10 9 5 4 28 7 22 6 7 6 9 10 6 18 11 10 16 20 20 23 21
7 5 3 2 2 3 5 6 7 7 7 7 5 5 6 8 3 3 5 5 4 4 10 11 10 1 4 9 12 9 8 10 5 3 11 6 5 5 12 13 15 19 20 20 19
8 5 3 3 3 4 5 7 8 8 8 7 5 6 7 14 1 3 6 3 5 8 12 3 8 14 12 6 11 12 7 9 5 4 4 9 6 3 13 12 16 18 18 17 18
7 5 3 3 3 5 6 7 8 8 8 6 5 6 9 11 3 5 8 6 6 9 10 10 8 7 9 11 10 34 10 13 11 7 1 13 4 12 23 12 14 16 16 16 16
7 4 3 4 4 5 7 8 8 8 7 6 6 6 9 3 5 8 8 6 7 9 10 11 10 13 4 9 12 19 9 9 13 23 23 8 6 8 24 14 17 14 13 14 15
6 3 4 5 5 7 8 8 8 8 8 7 4 7 13 2 9 10 10 7 6 9 11 10 10 15 6 21 5 6 4 13 10 19 10 22 6 20 12 25 19 16 17 14 15
5 4 6 7 7 9 9 8 8 8 7 7 10 9 12 9 8 10 10 9 7 13 7 11 12 7 6 5 6 7 6 8 14 11 13 16 5 19 34 21 36 21 18 18 17
4 6 7 8 10 12 14 12 6 3 13 15 7 12 4 5 6 8 10 10 11 14 4 22 2 5 18 21 1 4 3 7 10 19 11 14 7 4 29 31 32 23 24 20 18
5 7 8 10 12 16 19 6 4 8 15 20 13 4 2 7 8 10 9 12 11 5 7 1 2 17 16 22 5 8 10 11 15 16 17 2 20 23 13 18 27 22 21 22 22
7 9 10 11 14 18 20 9 5 5 9 18 15 13 8 12 11 12 11 13 10 8 13 4 13 15 8 3 5 9 11 8 9 5 11 6 17 17 26 34 9 3 28 23 25
9 11 12 12 9 11 16 10 7 4 6 13 14 9 11 11 4 11 11 3 8 12 16 9 16 5 7 7 9 3 7 11 9 4 4 15 5 4 15 20 3 3 3 6 27
12 14 17 18 11 14 3 4 5 6 4 15 12 11 11 11 8 8 9 8 1 6 3 2 5 10 9 3 5 9 10 10 14 10 5 5 9 6 15 9 11 13 12 8 12
14 17 21 6 10 3 3 4 4 7 4 11 10 11 12 14 10 10 8 9 10 4 18 9 15 5 8 4 6 12 14 14 16 11 6 8 7 8 7 9 10 10 11 12 12
16 21 19 18 4 1 2 6 6 8 13 11 13 15 18 14 16 9 13 15 5 7 15 14 14 5 4 9 3 13 14 4 5 3 3 7 1 10 15 11 7 4 4 4 8
17 21 15 13 8 2 4 8 10 2 11 12 14 16 18 13 13 6 14 4 16 15 9 6 5 6 8 3 8 12 9 10 12 9 3 4 4 8 15 16 11 9 7 6 6
18 16 14 6 4 3 8 9 6 2 6 4 18 13 8 6 9 7 21 10 11 22 15 9 8 4 6 4 3 6 10 16 10 14 6 5 12 18 10 12 15 10 13 15 5
16 10 11 8 7 5 8 15 10 8 8 9 6 5 12 11 13 16 6 2 7 14 9 12 9 7 10 4 13 8 8 8 6 5 7 10 8 10 10 10 10 9 11 11 9
13 13 15 12 8 11 11 12 3 4 7 6 9 2 10 10 11 10 4 6 3 5 2 9 11 13 3 10 8 8 6 11 11 6 6 10 7 12 9 6 6 7 10 11 8
9 6 12 13 10 13 13 15 2 5 6 8 7 11 4 8 6 5 12 6 10 5 10 15 12 11 17 17 6 8 8 10 8 11 11 12 10 6 7 3 7 10 14 12 5
9 11 9 16 8 11 18 4 4 4 6 5 5 4 8 9 5 10 13 13 5 3 8 10 8 9 11 13 9 3 5 10 10 11 12 11 10 7 12 14 12 14 11 11 8
8 5 7 17 22 17 15 7 9 6 11 4 8 6 7 6 10 6 13 5 4 4 6 4 12 13 12 18 17 14 14 15 14 12 15 15 17 15 17 16 9 9 9 9 4
8 6 10 9 14 15 17 7 13 10 10 10 7 8 10 10 9 11 11 10 8 14 6 4 12 13 16 17 18 20 20 18 19 16 16 18 18 16 13 14 17 14 12 9 7
12 10 16 16 17 17 13 12 12 11 8 7 8 11 13 9 9 12 11 7 6 7 8 9 12 13 17 19 19 20 20 19 19 20 17 18 15 12 17 16 15 13 14 13 6
10 8 11 13 14 10 12 14 13 12 15 9 9 12 9 12 13 12 15 10 13 14 13 15 12 13 17 19 20 17 19 18 13 8 11 12 13 14 12 14 13 16 17 12 6
Wind_Direction
347 343 333 330 284 200 189 184 187 187 185 182 190 199 216 242 250 273 283 248 256 217 260 230 257 251 239 266 74 354 278 67 136 216 109 140 128 73 95 122 116 68 137 152 154
343 334 325 321 273 205 193 188 189 183 181 183 188 199 232 256 264 262 241 273 228 237 227 258 244 212 222 98 46 34 299 144 129 174 239 130 93 133 135 146 130 92 116 143 156
337 325 313 303 247 201 204 196 194 183 180 183 191 214 245 278 291 211 217 239 232 211 201 285 281 259 305 135 133 213 241 73 38 158 138 128 97 111 2 324 142 134 141 152 160
330 319 303 285 239 200 204 197 196 189 182 187 201 224 249 283 323 162 190 224 231 251 274 272 245 7 259 258 170 183 230 90 151 137 126 101 155 126 145 108 126 143 152 156 165
327 313 292 266 231 206 206 195 192 184 180 195 204 232 270 265 278 256 192 212 227 212 256 292 87 12 220 307 56 295 253 139 90 207 109 121 44 80 96 104 124 144 156 161 168
325 309 280 246 220 204 202 194 188 181 185 197 208 242 274 273 317 194 190 201 201 261 283 253 279 217 218 145 147 237 115 155 161 137 130 190 138 257 123 133 135 151 164 170 172
322 301 262 229 204 198 196 188 185 182 185 191 211 253 271 274 195 185 190 218 245 267 295 319 315 296 335 340 33 23 8 354 178 181 138 110 3 28 288 152 144 160 173 177 181
316 285 234 212 197 189 188 183 181 175 179 188 214 265 274 199 202 204 214 239 255 271 281 314 320 291 282 342 36 42 12 342 303 344 326 237 113 261 258 246 160 169 176 183 186
309 258 211 194 184 181 177 175 170 168 174 185 217 263 265 244 203 211 210 237 261 282 280 294 301 323 302 42 19 103 162 256 287 323 316 281 189 221 195 328 166 169 174 187 194
293 222 198 185 177 171 162 154 152 162 179 205 229 273 239 234 195 204 212 253 261 282 285 313 27 355 331 123 204 177 212 217 190 243 260 272 304 145 138 208 255 175 183 181 193
257 199 190 181 174 165 152 138 140 209 210 208 223 233 165 156 185 218 220 232 252 269 91 360 50 232 259 289 35 151 38 299 199 216 218 232 262 352 163 167 281 168 185 191 189
218 189 183 178 174 171 171 191 325 343 202 234 279 257 168 185 194 217 207 227 265 43 55 113 233 250 242 255 23 104 121 271 254 159 208 67 29 19 347 194 220 175 188 199 191
192 180 177 174 178 186 182 241 317 312 259 204 225 227 208 206 223 182 200 214 241 115 37 195 257 233 278 1 14 8 324 325 334 303 38 20 33 48 322 315 46 339 188 189 210
177 176 169 161 174 188 227 312 269 289 274 154 200 237 190 215 240 223 208 216 275 142 184 223 257 261 264 346 332 325 279 305 317 76 172 254 147 256 230 255 162 203 63 224 202
174 169 162 153 151 191 184 219 235 263 280 150 181 146 187 211 218 190 203 230 287 329 199 332 292 267 334 67 333 328 329 300 291 266 185 297 129 210 206 201 61 56 37 12 331
171 166 162 168 164 164 235 263 199 237 197 162 150 189 176 195 182 147 202 240 274 244 344 265 279 265 322 340 269 306 271 261 287 277 337 80 152 164 128 66 45 39 32 7 349
170 169 170 157 141 224 243 198 222 255 146 150 165 178 199 191 188 165 195 209 137 37 317 323 283 191 298 288 349 286 300 314 284 75 291 80 74 108 119 112 107 110 48 33 3
169 171 185 184 216 267 244 229 258 0 188 152 173 182 215 182 176 197 209 190 140 145 159 239 248 211 143 308 343 305 325 338 334 356 277 150 92 137 124 127 148 69 29 132 83
167 175 194 203 227 249 255 232 271 297 52 198 168 196 186 234 101 325 260 163 151 222 254 173 256 134 205 312 294 337 304 356 309 292 294 17 33 84 96 129 67 32 12 345 67
158 192 211 191 207 234 246 257 303 25 335 210 234 172 215 175 207 203 254 56 150 185 344 328 321 315 124 213 245 229 333 314 337 309 328 351 314 79 62 40 22 357 351 55 11
172 204 183 189 204 239 242 263 68 119 274 276 261 314 244 183 219 238 246 123 186 327 62 303 288 297 165 253 257 180 265 318 297 273 295 285 327 103 88 41 357 356 31 33 11
223 228 170 184 222 235 244 260 7 145 219 297 322 324 271 332 326 300 305 33 71 3 311 311 316 304 312 314 235 275 310 298 301 307 309 314 303 28 88 145 24 1 66 43 19
257 209 180 192 230 228 238 295 241 218 196 227 235 256 345 316 321 293 302 108 108 328 9 333 309 318 316 285 231 212 265 292 303 307 288 291 287 297 350 356 25 61 32 49 74
279 183 165 209 241 293 275 209 208 264 315 284 324 14 306 262 272 278 287 287 179 117 84 300 273 281 284 298 313 309 305 297 299 293 294 292 306 330 337 332 16 2 34 41 80
257 267 173 198 221 248 265 255 233 197 213 282 268 252 278 284 275 262 238 254 253 172 191 239 266 275 280 291 302 305 301 297 292 281 278 292 296 311 352 37 35 26 8 349 337
292 345 347 268 213 233 259 283 287 247 214 204 230 260 299 268 283 295 305 312 302 156 234 252 272 268 274 278 281 287 292 281 283 280 283 295 299 7 31 28 15 354 330 324 319
335 305 282 289 265 218 253 245 248 271 285 321 296 311 285 8 346 322 323 317 308 297 286 287 290 298 290 303 302 288 281 278 298 332 342 326 352 8 14 4 357 341 318 323 351